Regional Weather Roundup
Issued by NWS Portland, ME

Home | Current Version | Previous Version | Text Only | Print | Product List | Glossary On
Versions: 1 2 3 4 5 6 7 8 9 10 11 12 13 14 15 16 17 18 19 20 21 22 23 24 25 26 27 28 29 30 31 32 33 34 35 36 37 38 39 40 41 42 43 44 45 46 47 48 49 50
000
ASUS41 KGYX 271110
RWRGYX
WEATHER ROUNDUP FOR MAINE AND NEW HAMPSHIRE
NATIONAL WEATHER SERVICE GRAY ME
700 AM EDT FRI MAR 27 2015

MEZ002-005-006-010-012-015-018-020-021-024-026-027-029-271200-
MAINE

CITY           SKY/WX    TMP DP  RH WIND       PRES   REMARKS
PORTLAND       CLOUDY    39  37  92 NW7       29.72R
SANFORD        CLOUDY    36  32  87 NW3       29.73R
BAR HARBOR     CLOUDY    36  36 100 CALM      29.65F
WISCASSET      CLOUDY    34  34 100 CALM      29.71R
ROCKLAND       CLOUDY    37  34  87 CALM      29.67R
FRYEBURG       MIX PCPN  35  34  96 CALM      29.71R VSB 3/4
LEWISTONAUBURN CLOUDY    36  34  93 NW5       29.71R
AUGUSTA        CLOUDY    35  34  96 NW5       29.69R
WATERVILLE     CLOUDY    36  32  87 NW6       29.66R
BANGOR         CLOUDY    35  34  96 NW3       29.67F
GREENVILLE       N/A     32  31  96 VRB5      29.62R
MILLINOCKET    CLOUDY    35  33  92 CALM      29.67R
HOULTON        CLOUDY    33  31  92 CALM      29.62S FOG
PRESQUE ISLE   CLOUDY    30  27  86 CALM      29.63F
FRENCHVILLE    CLOUDY    31  22  69 N8        29.61S
CARIBOU        CLOUDY    32  25  75 NW6       29.63R
$$

NHZ002-005-008-009-011-012-014-271200-
NEW HAMPSHIRE

CITY           SKY/WX    TMP DP  RH WIND       PRES   REMARKS
PORTSMOUTH     LGT RAIN  37  37  97 W2        29.70R FOG
ROCHESTER      LGT RAIN  37  35  92 W7        29.71R
NASHUA         LGT RAIN  38  37  96 NW6       29.74R
MANCHESTER     LGT RAIN  38  38 100 NW5       29.72R
CONCORD        LGT RAIN  36  35  96 CALM      29.73R
LACONIA          N/A     36  32  87 CALM      29.69R
PLYMOUTH       DRIZZLE   37  35  95 W6        29.70F
BERLIN         CLOUDY    34  31  88 CALM      29.69R
WHITEFIELD     CLOUDY    34  32  92 CALM      29.70R
JAFFREY        LGT SNOW  34  33  96 CALM      29.72R FOG
KEENE          CLOUDY    34  34 100 CALM      29.74R
LEBANON        CLOUDY    34  33  96 CALM      29.71F
MT WASHINGTON  LGT SNOW  16  14  93 NW41        N/A  VSB 1   WCI  -7
$$

VTZ005-007-008-271200-
VERMONT

CITY           SKY/WX    TMP DP  RH WIND       PRES   REMARKS
ST JOHNSBURY     N/A     33  33 100 MISG      29.70S
MONTPELIER     CLOUDY    32  31  96 CALM      29.73F
BURLINGTON     CLOUDY    34  30  86 CALM      29.73R
$$

MAZ007-012-024-CTZ003-RIZ002-NYZ038-NYZ072-271200-
SOUTHERN NEW ENGLAND AND NY

CITY           SKY/WX    TMP DP  RH WIND       PRES   REMARKS
BOSTON         LGT RAIN  40  38  93 N9        29.72R
WORCESTER      LGT RAIN  37  34  89 N8        29.70R
NANTUCKET      LGT RAIN  40  38  93 N13       29.65R FOG
PROVIDENCE     LGT RAIN  41  38  89 N14       29.72R
HARTFORD       LGT RAIN  39  36  89 N6        29.73R
ALBANY         CLOUDY    36  31  82 NW3       29.78R
NEW YORK CITY  LGT RAIN  40  35  83 NW8       29.77R
$$

ANZ081-ANZ082-ANZ150-NHZ014-MEZ023>029-271200-
COASTAL MARINE OBSERVATIONS

STATION/POSITION TIME  TEMP    WIND        PRES    WAVE
                       AIR SEA DIR/SP/G            HT/PER
                 (UTC) (F)     (DEG/KT/KT) (MB)    (FT/S)
MOUNT DESERT ROC 1100   37                 1004.0R
MATINICUS ROCK   1100   36     360/  6/  6 1004.8R
WELLS            1000   38     310/  3/  5 1004.5R
ISLE OF SHOALS   1100   39     320/ 10/ 10 1005.5R
JEFFREYS LEDGE   1021      40                N/A     4/ 8
CASHES LEDGE BUO 1050   39 38              1004.1R   6/ 8
$$

.............KEY..............
   WCI - WIND CHILL
   TC  - TEMPERATURE IN CELSIUS
   VSB - VISIBILITY IN MILES
   HX  - HEAT INDEX
   FAIR- INDICATES FEW OR NO CLOUDS BELOW 12,000 FT, WITH NO
         SIGNIFICANT WEATHER AND/OR OBSTRUCTIONS TO VISIBILITY.




USA.gov is the U.S. government's official web portal to all federal, state and local government web resources and services.